#timestamp,LO_Frequency,Hit,StdDev 
1621263615.3,286047000.3,N
1621263635.1,286047001.2,N
1621263655.9,286047000.7,N
1621263675.7,286046998.4,N
1621263695.5,286047000.3,N
1621263715.4,286046998.2,N
1621263735.2,286046998.8,N
1621263755.1,286046996.9,N
1621263756.0,286046996.9,N
1621263775.8,286046996.5,N
1621263795.6,286046999.2,N
1621263815.5,286046999.3,N
1621263835.3,286046998.3,N
1621263855.2,286047000.9,N
1621263875.9,286047000.4,N
1621263895.7,286047001.1,N
1621263915.6,286046998.9,N
1621263935.4,286047000.1,N
1621263955.2,286047002.5,N
1621263975.1,286046998.2,N
1621263976.0,286046998.2,N
1621263995.8,286047001.2,N
1621264015.7,286046999.1,N
1621264035.5,286047000.9,N
1621264055.3,286047002.6,N
1621264075.2,286046996.6,N
1621264095.0,286046999.6,N
1621264095.9,286046999.6,N
1621264115.8,286046999.1,N
1621264135.6,286046999.3,N
1621264155.4,286046996.6,N
1621264175.3,286046997.0,N
1621264195.1,286046998.5,N
1621264215.8,286046998.8,N
1621264235.7,286046996.0,N
1621264255.5,286046996.6,N
1621264275.4,286047000.7,N
1621264295.2,286047000.5,N
1621264315.0,286047002.4,N
1621264315.9,286047002.4,N
1621264335.8,286047000.0,N
1621264355.6,286047002.1,N
1621264375.4,286047001.6,N
1621264395.3,286046998.3,N
1621264415.1,286046997.3,N
1621264435.9,286046996.6,N
1621264455.7,286046996.8,N
1621264475.5,286046995.8,N
1621264495.4,286046995.2,N
1621264515.2,286046995.9,N
1621264535.0,286046997.5,N
1621264535.9,286046997.5,N
1621264555.8,286046996.9,N
1621264575.6,286047000.6,N
1621264595.5,286047002.2,N
1621264615.3,286047000.9,N
1621264635.1,286047001.0,N
1621264655.9,286047000.6,N
1621264675.7,286047002.2,N
1621264695.5,286047002.4,N
1621264715.4,286047000.2,N
1621264735.2,286047002.3,N
1621264755.1,286047000.1,N
1621264756.0,286047000.1,N
1621264775.8,286047000.2,N
1621264795.6,286046998.2,N
1621264815.5,286047000.4,N
1621264835.3,286047001.0,N
1621264855.1,286047000.8,N
1621264875.9,286046998.2,N
1621264895.7,286047015.3,Y
1621264915.6,286047017.2,P
1621264935.4,286047011.1,N
1621264955.2,286047008.2,N
1621264975.1,286047004.5,N
1621264976.0,286047004.5,N
1621264995.8,286047004.0,N
1621265015.6,286047002.3,N
1621265035.5,286047003.0,N
1621265055.3,286047003.0,N
1621265075.2,286047002.0,N
1621265095.9,286047000.7,N
1621265115.7,286046999.2,N
1621265135.6,286046997.3,N
1621265155.4,286046997.2,N
1621265175.2,286046998.5,N
1621265195.1,286046997.6,N
1621265196.0,286046997.6,N
1621265215.8,286046998.0,N
1621265235.7,286046999.3,N
1621265255.5,286046997.6,N
1621265275.3,286046996.9,N
1621265295.2,286046997.6,N
1621265315.0,286046996.1,N
1621265315.9,286046996.1,N
1621265335.7,286046999.2,N
1621265355.6,286046996.5,N
1621265375.4,286046995.0,N
1621265395.3,286046996.8,N
1621265415.1,286046995.1,N
1621265416.0,286046995.1,N
1621265435.8,286046996.2,N
1621265455.7,286046996.0,N
1621265475.5,286046998.0,N
1621265495.3,286046994.1,N
1621265515.2,286046994.3,N
1621265535.0,286046992.2,N
1621265535.9,286046992.2,Y
1621265555.8,286046993.7,P
1621265575.6,286046995.3,N
1621265595.4,286046996.9,N
1621265615.3,286046998.7,N
1621265635.1,286046998.5,N
1621265655.9,286046998.7,N
1621265675.7,286046999.2,N
1621265695.5,286047000.4,N
1621265715.4,286046996.5,N
1621265735.2,286046995.4,N
1621265755.1,286046995.6,N
1621265756.0,286046995.6,N
1621265775.8,286046995.9,N
1621265795.6,286046995.0,N
1621265815.5,286046997.8,N
1621265835.3,286046997.4,N
1621265855.1,286046994.0,Y
1621265875.9,286046996.9,P
1621265895.7,286046998.3,P
1621265915.6,286047001.2,N
1621265935.4,286046999.6,N
1621265955.2,286047001.0,N
1621265975.1,286047000.3,N
1621265976.0,286047000.3,N
1621265995.8,286046999.7,N
1621266015.7,286047004.1,N
1621266035.5,286047003.6,N
1621266055.3,286047003.6,N
1621266075.2,286047004.2,N
1621266095.0,286047001.4,N
1621266095.9,286047001.4,N
1621266115.8,286047002.8,N
1621266135.6,286046998.5,N
1621266155.4,286047002.3,N
1621266175.3,286047001.8,N
1621266195.1,286047000.4,N
1621266215.8,286046998.2,N
1621266235.7,286046997.1,N
1621266255.5,286046995.1,N
1621266275.4,286046996.5,N
1621266295.2,286046999.6,N
1621266315.0,286046996.8,N
1621266315.9,286046996.8,N
1621266335.8,286046996.8,N
1621266355.6,286046999.6,N
1621266375.5,286046999.1,N
1621266395.3,286046996.6,N
1621266415.1,286046999.1,N
1621266435.9,286046996.5,N
1621266455.7,286046996.5,N
1621266475.5,286046999.3,N
1621266495.4,286046997.2,N
1621266515.2,286046995.3,N
1621266535.1,286046995.3,N
1621266536.0,286046995.3,N
1621266555.8,286046995.5,N
1621266575.6,286046993.9,N
1621266595.5,286046993.7,N
1621266615.3,286046995.4,N
1621266635.2,286046996.5,N
1621266655.9,286046999.4,N
1621266675.7,286047001.0,N
1621266695.6,286046999.0,N
1621266715.4,286047000.5,N
1621266735.3,286047000.2,N
1621266755.1,286047000.7,N
1621266756.0,286047000.7,N
1621266775.8,286047000.8,N
1621266795.7,286047002.3,N
1621266815.5,286046999.9,N
1621266835.3,286047000.9,N
1621266855.2,286047000.2,N
1621266875.0,286046999.8,N
1621266875.9,286046999.8,N
1621266895.8,286047001.7,N
1621266915.6,286047001.9,N
1621266935.4,286047001.1,N
1621266955.3,286046999.3,N
1621266975.1,286047001.0,N
1621266995.8,286046998.7,N
1621267015.7,286046998.6,N
1621267035.5,286047000.8,N
1621267055.4,286047000.8,N
1621267075.2,286046999.8,N
1621267095.0,286047001.4,N
1621267095.9,286047001.4,N
1621267115.8,286046999.3,N
1621267135.6,286046999.2,N
1621267155.4,286046999.5,N
1621267175.3,286047000.7,N
1621267195.1,286047001.2,N
